This is the latest recevied weather packets stored in our database for station/object W3AJR. If no packets are shown the sender has not sent any weather packets the latest 10 day(s).
| Time | Temp. | Humidity | Pressure | Rain* | Wind** | Luminosity | Snow |
|---|---|---|---|---|---|---|---|
| 1778135640 | 12.22° C | 99% | 1010.3 hPa | 1.78 mm | - | 0 W/m² | - |
| 1778135337 | 12.22° C | 99% | 1010.1 hPa | 1.78 mm | - | 0 W/m² | - |
| 1778135033 | 12.78° C | 99% | 1010.1 hPa | 0 mm | - | 0 W/m² | - |
| 1778134731 | 12.78° C | 99% | 1010.6 hPa | 0 mm | - | 0 W/m² | - |
| 1778134429 | 12.78° C | 99% | 1010.3 hPa | 0 mm | - | 0 W/m² | - |
| 1778134127 | 13.33° C | 99% | 1010.1 hPa | 0 mm | - | 0 W/m² | - |
| 1778133824 | 13.33° C | 99% | 1010.1 hPa | 0 mm | - | 0 W/m² | - |
| 1778133521 | 13.33° C | 99% | 1010.6 hPa | 0 mm | - | 0 W/m² | - |
| 1778133215 | 13.33° C | 99% | 1009.8 hPa | 0 mm | - | 0 W/m² | - |
| 1778132913 | 13.33° C | 99% | 1010.5 hPa | 0 mm | - | 0 W/m² | - |
| 1778132609 | 13.33° C | 99% | 1010 hPa | 0 mm | - | 0 W/m² | - |
| 1778132306 | 13.33° C | 99% | 1010.1 hPa | 0 mm | - | 0 W/m² | - |
| 1778132004 | 13.33° C | 99% | 1009.8 hPa | 0 mm | - | 0 W/m² | - |
| 1778131703 | 13.33° C | 99% | 1009.7 hPa | 0 mm | - | 0 W/m² | - |
| 1778131399 | 13.89° C | 99% | 1009.8 hPa | 0 mm | - | 0 W/m² | - |
| 1778131097 | 13.89° C | 99% | 1009.4 hPa | 0 mm | - | 0 W/m² | - |
| 1778130794 | 13.89° C | 99% | 1009.5 hPa | 1.27 mm | - | 0 W/m² | - |
| 1778130491 | 13.89° C | 99% | 1009.4 hPa | 1.27 mm | - | 0 W/m² | - |
| 1778130187 | 13.89° C | 99% | 1009.7 hPa | 1.78 mm | - | 0 W/m² | - |
| 1778129884 | 13.89° C | 99% | 1009.7 hPa | 1.78 mm | - | 0 W/m² | - |
| 1778129580 | 13.89° C | 99% | 1010 hPa | 3.05 mm | - | 0 W/m² | - |
| 1778129278 | 13.89° C | 99% | 1009.3 hPa | 7.87 mm | - | 0 W/m² | - |
| 1778128974 | 13.89° C | 99% | 1008.8 hPa | 7.87 mm | - | 0 W/m² | - |
| 1778128670 | 14.44° C | 99% | 1009.5 hPa | 6.1 mm | - | 0 W/m² | - |
| 1778128367 | 15° C | 99% | 1009.9 hPa | 3.05 mm | - | 0 W/m² | - |
* Rain latest hour (hover to see other rain measurements)
** Current wind speed in m/s (hover to see current wind gust speed)